Regional Weather Roundup
Issued by NWS

Home | Current Version | Previous Version | Graphics & Text | Print | Product List | Glossary On
Versions: 1 2 3 4 5 6 7 8 9 10 11 12 13 14 15 16 17 18 19 20 21 22 23 24 25 26 27 28 29 30 31 32 33 34 35 36 37 38 39 40 41 42 43 44 45 46 47 48 49 50
000
ASUS43 KFSD 060510
RWRSD

WEATHER ROUNDUP FOR SOUTH DAKOTA
NATIONAL WEATHER SERVICE SIOUX FALLS SD
1200 AM CDT MON JUL 06 2015

NOTE: "FAIR" INDICATES FEW OR NO CLOUDS BELOW 12,000 FEET WITH NO
SIGNIFICANT WEATHER AND/OR OBSTRUCTIONS TO VISIBILITY.


SDZ001>005-009-010-012>017-060600-
NORTHWEST AND NORTH CENTRAL SOUTH DAKOTA

CITY           SKY/WX    TMP DP  RH WIND       PRES   REMARKS
BUFFALO          N/A     62  56  80 NW8       30.03S
FAITH            N/A     62  58  86 N12       30.01F
MOBRIDGE       CLOUDY    68  65  90 N7        29.92S FOG
$$

SDZ012>016-024>037-041>051-057-063-072>074-060600-
SOUTHWEST AND SOUTH CENTRAL SOUTH DAKOTA

CITY           SKY/WX    TMP DP  RH WIND       PRES   REMARKS
RAPID CTY ARPT CLOUDY    61  59  93 NW15      30.07S FOG
PIERRE         LGT RAIN  66  64  93 N15       29.90S FOG
CUSTER         LGT RAIN  55  53  93 N7G18     30.14R FOG
ELLSWORTH AFB  CLOUDY    61  59  94 N15       30.06
PHILIP         LGT RAIN  64  62  93 N9        29.97F
PINE RIDGE     LGT RAIN  62  60  93 NE13      30.02R
SPEARFISH      CLOUDY    57  57 100 W6        30.15S FOG
WINNER         CLOUDY    68  64  87 N18       29.88R
$$

SDZ004>011-016>023-039-040-060600-
NORTHEAST SOUTH DAKOTA

CITY           SKY/WX    TMP DP  RH WIND       PRES   REMARKS
ABERDEEN       LGT RAIN  71  65  81 N12       29.89R
WATERTOWN      CLOUDY    69  65  86 N14       29.83F
BROOKINGS      CLOUDY    70  64  83 SE15      29.80F
SISSETON         N/A     70  67  90 N9        29.86F
$$

SDZ017-020-022-023-036>040-048>070-060600-
SOUTHEAST SOUTH DAKOTA

CITY           SKY/WX    TMP DP  RH WIND       PRES   REMARKS
SIOUX FALLS    CLOUDY    80  72  76 SE13      29.73F
HURON          CLOUDY    72  68  87 N15G24    29.80F THUNDER
CHAMBERLAIN    LGT RAIN  67  65  94 N23G32    29.84F
MITCHELL       TSTM      73  71  93 VRB3      29.79R
YANKTON        CLOUDY    79  73  83 SE14      29.66F
$$

ABBREVIATIONS USED IN REMARKS
   TC - TEMPERATURE IN CELSIUS
  WCI - WIND CHILL INDEX
   HX - HEAT INDEX
  VSB - VISIBILITY



USA.gov is the U.S. government's official web portal to all federal, state and local government web resources and services.